El Centro, CA

1:19 AM PDT on April 30, 2017 (GMT -0700)
El Centro Naval Air Facility

Weather History for KNJK - August, 2014

Change the Weather History Date:

Wednesday, August 13, 2014

  Actual Average Record
Temperature  
Mean Temperature 92 °F -  
Max Temperature 104 °F 103 °F 116 °F (2012)
Min Temperature 81 °F 79 °F 53 °F (1998)
Cooling Degree Days 28    
Growing Degree Days 42 (Base 50)    
Moisture  
Dew Point 70 °F    
Average Humidity 52    
Maximum Humidity 77    
Minimum Humidity 29    
Precipitation  
Precipitation 0.00 in - - ()
Sea Level Pressure  
Sea Level Pressure 29.88 in    
Wind  
Wind Speed 8 mph (SE)    
Max Wind Speed 17 mph    
Max Gust Speed 28 mph    
Visibility 10 miles    
Events Rain    
Averages and records for this station are not official NWS values.
T = Trace of Precipitation, MM = Missing Value Source: NWS Daily Summary

Daily Weather History Graph

Daily Weather History Graph

Search for Another Location

Airport or City:

Trip Planner

Search our weather history database for the weather conditions in past years. The results will help you decide how hot, cold, wet, or windy it might be!

Date:

Astronomy

Aug. 13, 2014 Rise Set
Actual Time 6:04 AM PDT 7:29 PM PDT
Civil Twilight 5:38 AM PDT 7:55 PM PDT
Nautical Twilight 5:07 AM PDT 8:27 PM PDT
Astronomical Twilight 4:34 AM PDT 8:59 PM PDT
Moon 9:33 PM PDT (8/13) 9:23 AM PDT (8/13)
Length of Visible Light 14h 17m
Length of Day
13h 25m
Waning Gibbous, 87% of the Moon is Illuminated
Aug 13
Waning Gibbous
Aug 17
Last Quarter
Aug 25
New
Sep 2
First Quarter
Sep 8
Full

Hourly Weather History & Observations

Time (PDT) Temp. Heat Index Dew Point Humidity Pressure Visibility Wind Dir Wind Speed Gust Speed Precip Events Conditions
12:56 AM 87.1 °F 93.6 °F 72.0 °F 61% 29.85 in 10.0 mi ESE 6.9 mph - N/A   Mostly Cloudy
1:56 AM 87.1 °F 96.3 °F 75.0 °F 67% 29.86 in 10.0 mi East 6.9 mph - N/A   Overcast
2:56 AM 81.0 °F 85.2 °F 72.0 °F 74% 29.89 in 10.0 mi NE 17.3 mph 27.6 mph 0.00 in Rain Light Rain
3:56 AM 82.0 °F 85.9 °F 70.0 °F 67% 29.91 in 10.0 mi East 9.2 mph - 0.00 in   Clear
4:56 AM 81.0 °F 84.9 °F 71.1 °F 72% 29.90 in 10.0 mi South 8.1 mph - N/A   Clear
5:56 AM 81.0 °F 85.8 °F 73.0 °F 77% 29.91 in 10.0 mi West 5.8 mph - N/A   Mostly Cloudy
6:56 AM 82.0 °F 86.7 °F 72.0 °F 71% 29.92 in 10.0 mi West 4.6 mph - N/A   Mostly Cloudy
7:56 AM 82.9 °F 87.5 °F 71.1 °F 67% 29.93 in 10.0 mi Calm Calm - N/A   Mostly Cloudy
8:56 AM 87.1 °F 92.0 °F 70.0 °F 57% 29.94 in 10.0 mi ENE 8.1 mph - N/A   Scattered Clouds
9:56 AM 89.1 °F 95.0 °F 71.1 °F 55% 29.94 in 10.0 mi East 11.5 mph - N/A   Scattered Clouds
10:56 AM 91.9 °F 97.4 °F 70.0 °F 48% 29.94 in 10.0 mi East 10.4 mph - N/A   Scattered Clouds
11:56 AM 93.9 °F 100.3 °F 70.0 °F 46% 29.92 in 10.0 mi Calm Calm - N/A   Scattered Clouds
12:56 PM 97.0 °F 102.8 °F 69.1 °F 40% 29.90 in 10.0 mi Variable 3.5 mph - N/A   Scattered Clouds
1:56 PM 99.0 °F 106.2 °F 70.0 °F 39% 29.88 in 10.0 mi NE 5.8 mph - N/A   Scattered Clouds
2:56 PM 100.0 °F 107.0 °F 69.1 °F 37% 29.86 in 10.0 mi East 9.2 mph - N/A   Mostly Cloudy
3:56 PM 100.9 °F 108.2 °F 69.1 °F 36% 29.83 in 10.0 mi Variable 5.8 mph - N/A   Mostly Cloudy
4:56 PM 104.0 °F 108.9 °F 66.0 °F 29% 29.81 in 10.0 mi South 10.4 mph - N/A   Scattered Clouds
5:56 PM 96.1 °F 104.9 °F 72.0 °F 46% 29.81 in 10.0 mi SSE 17.3 mph - N/A   Partly Cloudy
6:56 PM 96.1 °F 102.9 °F 70.0 °F 43% 29.81 in 10.0 mi SSE 12.7 mph - N/A   Partly Cloudy
9:56 PM 93.0 °F 99.0 °F 70.0 °F 47% 29.86 in 10.0 mi South 8.1 mph - N/A   Partly Cloudy
10:56 PM 91.9 °F 92.9 °F 63.0 °F 38% 29.86 in 10.0 mi WSW 9.2 mph - N/A   Partly Cloudy
11:56 PM 91.0 °F 89.7 °F 57.0 °F 32% 29.86 in 10.0 mi SW 6.9 mph - N/A   Clear